Date String (YYYY-MM-DD hh:mm:ss) UTC,Instrument flags,absolute air pressure of the measurement (hPa),sample flow rate (lpm),inlet stack bypass flow (lpm),air temperature of the measurement (°C),ambient temperature measured by the external sensor (°C),aerosol sample conditioner tube jacket temperature (°C),OPC LED temperature (°C),internal box temperature (°C),relative humidity of the measurement (%),span deviation,mass concentration of particles derived from Lorenz-Mie calculation of OPC scattering (μg/m³),mass concentration of particles derived from Lorenz-Mie calculation of OPC scattering (μg/m³),mass concentration of particles derived from Lorenz-Mie calculation of OPC scattering (μg/m³)
DateTimeUTC,F1_M11,P_M11,Q1_M11,Q2_M11,T1_M11,T2_M11,T3_M11,T4_M11,T5_M11,U1_M11,ZSPAN_M11,X2_M11,X0_M11,X1_M11
2023-06-10 07:00:00,SystemResetWarning,0830.2,5.00,000.00,030.2,028.5,000.0,038.8,031.6,21.6,0000.0,0003.50,0007.89,0002.60
2023-06-10 07:01:00,SystemResetWarning,0830.2,5.00,000.00,030.2,028.5,000.0,038.8,031.6,21.3,0000.0,0003.49,0007.87,0002.59
2023-06-10 07:02:00,SystemResetWarning,0830.1,5.00,000.00,030.2,028.5,000.0,038.8,031.6,21.0,0000.0,0003.48,0008.25,0002.57
2023-06-10 07:03:00,SystemResetWarning,0830.1,5.00,000.00,030.2,028.5,000.0,038.8,031.6,21.0,0000.0,0003.49,0008.28,0002.58
2023-06-10 07:04:00,SystemResetWarning,0830.1,5.00,000.00,030.2,028.5,000.0,038.8,031.6,21.1,0000.0,0003.43,0008.73,0002.58
2023-06-10 07:05:00,SystemResetWarning,0830.1,5.00,000.00,030.2,028.5,000.0,038.8,031.7,20.9,0000.0,0003.45,0008.80,0002.59
2023-06-10 07:06:00,SystemResetWarning,0830.0,5.00,000.00,030.2,028.5,000.0,038.8,031.6,20.9,0000.0,0003.46,0008.62,0002.61
2023-06-10 07:07:00,SystemResetWarning,0830.0,5.00,000.00,030.2,028.5,000.0,038.8,031.6,20.7,0000.0,0003.47,0008.86,0002.61
2023-06-10 07:08:00,SystemResetWarning,0830.0,4.99,000.00,030.2,028.5,000.0,038.8,031.6,20.8,0000.0,0003.46,0009.00,0002.60
2023-06-10 07:09:00,SystemResetWarning,0830.0,5.00,000.00,030.2,028.5,000.0,038.8,031.6,21.2,0000.0,0003.48,0009.08,0002.60
2023-06-10 07:10:00,SystemResetWarning,0830.0,5.00,000.00,030.2,028.5,000.0,038.8,031.6,21.2,0000.0,0003.44,0008.64,0002.60
2023-06-10 07:11:00,SystemResetWarning,0830.0,5.00,000.00,030.2,028.5,000.0,038.8,031.6,21.2,0000.0,0003.44,0008.42,0002.60
2023-06-10 07:12:00,SystemResetWarning,0830.0,5.00,000.00,030.2,028.5,000.0,038.8,031.6,20.8,0000.0,0003.44,0008.44,0002.60
2023-06-10 07:13:00,SystemResetWarning,0830.0,5.00,000.00,030.2,028.5,000.0,038.8,031.7,21.0,0000.0,0003.44,0008.23,0002.61
2023-06-10 07:14:00,SystemResetWarning,0830.1,5.00,000.00,030.2,028.5,000.0,038.8,031.6,21.2,0000.0,0003.42,0008.12,0002.60
2023-06-10 07:15:00,SystemResetWarning,0830.0,5.01,000.00,030.2,028.5,000.0,038.8,031.7,21.2,0000.0,0003.46,0007.73,0002.60
2023-06-10 07:16:00,SystemResetWarning,0830.0,5.01,000.00,030.2,028.5,000.0,038.8,031.7,20.6,0000.0,0003.43,0007.44,0002.58
2023-06-10 07:17:00,SystemResetWarning,0830.0,5.00,000.00,030.2,028.5,000.0,038.8,031.7,20.4,0000.0,0003.38,0007.29,0002.56
2023-06-10 07:18:00,SystemResetWarning,0830.0,4.99,000.00,030.2,028.5,000.0,038.8,031.7,20.4,0000.0,0003.40,0007.00,0002.57
2023-06-10 07:19:00,SystemResetWarning,0830.1,4.99,000.00,030.2,028.5,000.0,038.8,031.7,20.3,0000.0,0003.42,0006.86,0002.58
2023-06-10 07:20:00,SystemResetWarning,0830.0,5.01,000.00,030.2,028.5,000.0,038.8,031.7,20.2,0000.0,0003.43,0007.24,0002.59
2023-06-10 07:21:00,SystemResetWarning,0830.1,5.01,000.00,030.2,028.5,000.0,038.8,031.7,20.0,0000.0,0003.47,0007.26,0002.61
2023-06-10 07:22:00,SystemResetWarning,0830.0,5.00,000.00,030.2,028.5,000.0,038.8,031.7,20.1,0000.0,0003.44,0007.02,0002.62
2023-06-10 07:23:00,SystemResetWarning,0830.0,4.99,000.00,030.2,028.5,000.0,038.8,031.7,20.0,0000.0,0003.41,0006.80,0002.62
2023-06-10 07:24:00,SystemResetWarning,0830.0,5.00,000.00,030.2,028.5,000.0,038.8,031.6,20.0,0000.0,0003.38,0006.52,0002.62
2023-06-10 07:25:00,SystemResetWarning,0830.0,5.01,000.00,030.2,028.5,000.0,038.8,031.6,19.9,0000.0,0003.38,0006.54,0002.64
2023-06-10 07:26:00,SystemResetWarning,0830.0,5.00,000.00,030.2,028.5,000.0,038.8,031.6,19.8,0000.0,0003.38,0006.94,0002.64
2023-06-10 07:27:00,SystemResetWarning,0830.0,5.00,000.00,030.2,028.5,000.0,038.8,031.6,19.8,0000.0,0003.42,0007.07,0002.67
2023-06-10 07:28:00,SystemResetWarning,0830.0,4.99,000.00,030.2,028.5,000.0,038.8,031.6,19.7,0000.0,0003.42,0006.96,0002.66
2023-06-10 07:29:00,SystemResetWarning,0830.0,4.99,000.00,030.2,028.5,000.0,038.8,031.6,19.7,0000.0,0003.41,0007.47,0002.65
2023-06-10 07:30:00,SystemResetWarning,0830.0,5.00,000.00,030.2,028.5,000.0,038.8,031.6,19.7,0000.0,0003.41,0007.67,0002.65
2023-06-10 07:31:00,SystemResetWarning,0829.9,5.01,000.00,030.2,028.5,000.0,038.8,031.6,19.6,0000.0,0003.39,0007.58,0002.65
2023-06-10 07:32:00,SystemResetWarning,0829.9,5.01,000.00,030.2,028.5,000.0,038.8,031.6,19.6,0000.0,0003.35,0007.53,0002.65
2023-06-10 07:33:00,SystemResetWarning,0829.9,5.01,000.00,030.2,028.5,000.0,038.8,031.6,19.5,0000.0,0003.39,0007.61,0002.66
2023-06-10 07:34:00,SystemResetWarning,0829.8,5.00,000.00,030.2,028.5,000.0,038.8,031.6,19.5,0000.0,0003.44,0007.81,0002.66
2023-06-10 07:35:00,SystemResetWarning,0829.8,5.00,000.00,030.2,028.5,000.0,038.8,031.6,19.5,0000.0,0003.46,0007.86,0002.66
2023-06-10 07:36:00,SystemResetWarning,0829.9,5.00,000.00,030.2,028.5,000.0,038.8,031.6,19.5,0000.0,0003.50,0007.94,0002.66
2023-06-10 07:37:00,SystemResetWarning,0829.8,4.99,000.00,030.2,028.5,000.0,038.8,031.6,19.4,0000.0,0003.47,0007.66,0002.67
2023-06-10 07:38:00,SystemResetWarning,0829.8,4.99,000.00,030.2,028.5,000.0,038.7,031.6,19.4,0000.0,0003.47,0007.63,0002.67
2023-06-10 07:39:00,SystemResetWarning,0829.8,5.00,000.00,030.1,028.5,000.0,038.7,031.6,19.2,0000.0,0003.51,0007.70,0002.69
2023-06-10 07:40:00,SystemResetWarning,0829.8,5.00,000.00,030.2,028.5,000.0,038.8,031.6,19.1,0000.0,0003.53,0007.16,0002.70
2023-06-10 07:41:00,SystemResetWarning,0829.8,5.00,000.00,030.2,028.5,000.0,038.7,031.6,19.1,0000.0,0003.55,0006.88,0002.70
2023-06-10 07:42:00,SystemResetWarning,0829.8,5.01,000.00,030.2,028.5,000.0,038.8,031.6,19.0,0000.0,0003.57,0006.65,0002.70
2023-06-10 07:43:00,SystemResetWarning,0829.7,5.00,000.00,030.2,028.5,000.0,038.7,031.6,19.1,0000.0,0003.59,0006.78,0002.70
2023-06-10 07:44:00,SystemResetWarning,0829.7,5.00,000.00,030.2,028.5,000.0,038.7,031.7,19.1,0000.0,0003.59,0006.93,0002.71
2023-06-10 07:45:00,SystemResetWarning,0829.7,5.00,000.00,030.2,028.5,000.0,038.7,031.7,19.0,0000.0,0003.59,0006.85,0002.70
2023-06-10 07:46:00,SystemResetWarning,0829.7,5.00,000.00,030.2,028.5,000.0,038.8,031.6,19.1,0000.0,0003.59,0006.86,0002.70
2023-06-10 07:47:00,SystemResetWarning,0829.7,5.00,000.00,030.2,028.5,000.0,038.7,031.7,19.0,0000.0,0003.56,0006.78,0002.69
2023-06-10 07:48:00,SystemResetWarning,0829.7,5.00,000.00,030.2,028.5,000.0,038.7,031.7,18.9,0000.0,0003.57,0006.86,0002.69
2023-06-10 07:49:00,SystemResetWarning,0829.7,4.99,000.00,030.2,028.5,000.0,038.7,031.7,18.8,0000.0,0003.58,0006.95,0002.69
2023-06-10 07:50:00,SystemResetWarning,0829.7,4.99,000.00,030.2,028.5,000.0,038.8,031.7,18.8,0000.0,0003.57,0006.87,0002.68
2023-06-10 07:51:00,SystemResetWarning,0829.7,5.00,000.00,030.2,028.5,000.0,038.7,031.6,18.6,0000.0,0003.56,0006.86,0002.67
2023-06-10 07:52:00,SystemResetWarning,0829.7,5.00,000.00,030.1,028.5,000.0,038.8,031.6,18.7,0000.0,0003.54,0006.84,0002.66
2023-06-10 07:53:00,SystemResetWarning,0829.6,5.00,000.00,030.1,028.5,000.0,038.7,031.6,19.1,0000.0,0003.53,0006.81,0002.64
2023-06-10 07:54:00,SystemResetWarning,0829.6,5.00,000.00,030.1,028.5,000.0,038.7,031.7,19.0,0000.0,0003.54,0006.77,0002.65
2023-06-10 07:55:00,SystemResetWarning,0829.6,5.00,000.00,030.1,028.5,000.0,038.7,031.7,19.1,0000.0,0003.50,0006.49,0002.63
2023-06-10 07:56:00,SystemResetWarning,0829.6,5.01,000.00,030.1,028.5,000.0,038.7,031.6,19.0,0000.0,0003.47,0006.26,0002.61
2023-06-10 07:57:00,SystemResetWarning,0829.6,5.00,000.00,030.1,028.5,000.0,038.7,031.6,19.0,0000.0,0003.43,0006.07,0002.60
2023-06-10 07:58:00,SystemResetWarning,0829.6,5.00,000.00,030.1,028.5,000.0,038.7,031.6,19.0,0000.0,0003.41,0005.95,0002.59
2023-06-10 07:59:00,SystemResetWarning,0829.5,5.00,000.00,030.1,028.5,000.0,038.7,031.6,19.2,0000.0,0003.41,0005.95,0002.59
